Location: Asheville, NC
(35.6000°N, 82.5500°W)
Time: 14:01:52
(UTC-05:00)

Vanguard 2 Rocket - Pass Details

Date: 10 December 2017
Orbit: 556 x 3326 km, 32.9° (Epoch: 19 January)

Event Time Altitude Azimuth Distance (km) Brightness Sun altitude
Rises 18:11:57 0° 205° (SSW) 4,643 11.3 -11.0°
Reaches altitude 10° 18:15:02 10° 195° (SSW) 4,011 10.7 -11.6°
Maximum altitude 18:24:49 33° 137° (SE) 3,487 9.6 -13.4°
Enters shadow 18:36:03 16° 88° (E) 5,313 10.2 -15.6°
Drops below altitude 10° 18:39:15 10° 82° (E) 5,982 - -16.2°
Sets 18:45:07 0° 75° (ENE) 7,218 - -17.4°
